,,Stat1,,Stat2,,Stat3,,Stat4,,Wind1,,Wind1,
time,status,PR1M_SUM,status,RH1M_AVG,status,SR1M_AVG,status,TA1M_AVG,status,W1dAve1m,status,W1sAve1m,
2000-01-03, 00:00:01,VALID,0,VALID,100,VALID,-0.0339617,VALID,19.1554,VALID,233,VALID,0,
2000-01-03, 00:01:00,VALID,0,VALID,100,VALID,-0.0169808,VALID,19.1586,VALID,228,VALID,0,
2000-01-03, 00:02:01,VALID,0,VALID,100,VALID,0,VALID,19.1554,VALID,228,VALID,0,
2000-01-03, 00:03:00,VALID,0,VALID,100,VALID,-0.0169808,VALID,19.1554,VALID,240,VALID,0,
2000-01-03, 00:04:00,VALID,0,VALID,100,VALID,0,VALID,19.1584,VALID,220,VALID,0,
2000-01-03, 00:05:00,VALID,0,VALID,100,VALID,-0.0169808,VALID,19.1388,VALID,197,VALID,0,
2000-01-03, 00:06:00,VALID,0,VALID,100,VALID,-0.0169808,VALID,19.1136,VALID,207,VALID,0,
2000-01-03, 00:07:00,VALID,0,VALID,100,VALID,-0.0339617,VALID,19.0903,VALID,191,VALID,0,
2000-01-03, 00:08:00,VALID,0,VALID,100,VALID,-0.0169808,VALID,19.0609,VALID,171,VALID,0,
2000-01-03, 00:09:00,VALID,0,VALID,100,VALID,-0.0339617,VALID,19.0319,VALID,151,VALID,0,
2000-01-03, 00:10:00,VALID,0,VALID,100,VALID,-0.0339617,VALID,19.006,VALID,149,VALID,0,
2000-01-03, 00:11:00,VALID,0,VALID,100,VALID,-0.0339617,VALID,19.0065,VALID,149,VALID,0,
2000-01-03, 00:12:01,VALID,0,VALID,100,VALID,-0.0339617,VALID,18.9928,VALID,149,VALID,0,
2000-01-03, 00:13:00,VALID,0,VALID,100,VALID,-0.0169808,VALID,19.0062,VALID,159,VALID,0,
2000-01-03, 00:14:00,VALID,0,VALID,100,VALID,-0.0169808,VALID,18.9998,VALID,207,VALID,0,
2000-01-03, 00:15:00,VALID,0,VALID,100,VALID,-0.0849042,VALID,19.0266,VALID,200,VALID,0,
2000-01-03, 00:16:00,VALID,0,VALID,100,VALID,-0.0169808,VALID,19.0365,VALID,191,VALID,0,
2000-01-03, 00:17:00,VALID,0,VALID,100,VALID,-0.0509425,VALID,19.0194,VALID,197,VALID,0,
2000-01-03, 00:18:00,VALID,0,VALID,100,VALID,0,VALID,19.0254,VALID,208,VALID,0,
2000-01-03, 00:19:00,VALID,0,VALID,100,VALID,0.0679233,VALID,18.9923,VALID,198,VALID,0,
2000-01-03, 00:20:00,VALID,0,VALID,100,VALID,0.0339617,VALID,18.9695,VALID,198,VALID,0,
2000-01-03, 00:21:00,VALID,0,VALID,100,VALID,0.0679233,VALID,18.9404,VALID,198,VALID,0,
2000-01-03, 00:22:00,VALID,0,VALID,100,VALID,0.0679233,VALID,18.9178,VALID,198,VALID,0,
2000-01-03, 00:23:00,VALID,0,VALID,100,VALID,0.0679233,VALID,18.9049,VALID,198,VALID,0,
2000-01-03, 00:24:00,VALID,0,VALID,100,VALID,0.0679233,VALID,18.9021,VALID,198,VALID,0,
2000-01-03, 00:25:00,VALID,0,VALID,100,VALID,0.0509425,VALID,18.9051,VALID,198,VALID,0,
2000-01-03, 00:26:00,VALID,0,VALID,100,VALID,0.0169808,VALID,18.8922,VALID,198,VALID,0,
2000-01-03, 00:27:00,VALID,0,VALID,100,VALID,0.0679233,VALID,18.9051,VALID,198,VALID,0,
2000-01-03, 00:28:00,VALID,0,VALID,100,VALID,0.0339617,VALID,18.9086,VALID,198,VALID,0,
2000-01-03, 00:29:00,VALID,0,VALID,100,VALID,0.0339617,VALID,18.9021,VALID,198,VALID,0,
2000-01-03, 00:30:00,VALID,0,VALID,100,VALID,0.0339617,VALID,18.8827,VALID,198,VALID,0,
2000-01-03, 00:31:00,VALID,0,VALID,100,VALID,0,VALID,18.8857,VALID,198,VALID,0,
2000-01-03, 00:32:00,VALID,0,VALID,100,VALID,0.0509425,VALID,18.9118,VALID,194,VALID,0,
2000-01-03, 00:33:01,VALID,0,VALID,100,VALID,0,VALID,18.9086,VALID,189,VALID,0,
2000-01-03, 00:34:01,VALID,0,VALID,100,VALID,0.0169808,VALID,18.9118,VALID,171,VALID,0,
2000-01-03, 00:35:00,VALID,0,VALID,100,VALID,0,VALID,18.8695,VALID,169,VALID,0,
2000-01-03, 00:36:00,VALID,0,VALID,100,VALID,-0.0169808,VALID,18.8375,VALID,168,VALID,0,
2000-01-03, 00:37:00,VALID,0,VALID,100,VALID,0,VALID,18.8439,VALID,167,VALID,0,
2000-01-03, 00:38:00,VALID,0,VALID,100,VALID,0,VALID,18.837,VALID,167,VALID,0,
2000-01-03, 00:39:00,VALID,0,VALID,100,VALID,0,VALID,18.864,VALID,167,VALID,0,
2000-01-03, 00:40:00,VALID,0,VALID,100,VALID,0,VALID,18.8991,VALID,184,VALID,0,
2000-01-03, 00:41:00,VALID,0,VALID,100,VALID,0.0169808,VALID,18.9411,VALID,184,VALID,0,
2000-01-03, 00:42:00,VALID,0,VALID,100,VALID,0,VALID,18.9603,VALID,180,VALID,0,
2000-01-03, 00:43:00,VALID,0,VALID,100,VALID,0,VALID,18.9021,VALID,172,VALID,0,
2000-01-03, 00:44:01,VALID,0,VALID,100,VALID,0,VALID,18.8012,VALID,165,VALID,0,
2000-01-03, 00:45:00,VALID,0,VALID,100,VALID,0,VALID,18.7497,VALID,154,VALID,0,
2000-01-03, 00:46:00,VALID,0,VALID,100,VALID,0,VALID,18.7082,VALID,153,VALID,0,
2000-01-03, 00:47:00,VALID,0,VALID,100,VALID,0.0169808,VALID,18.6754,VALID,153,VALID,0,
2000-01-03, 00:48:00,VALID,0,VALID,100,VALID,0,VALID,18.6888,VALID,156,VALID,0,
2000-01-03, 00:49:00,VALID,0,VALID,100,VALID,0,VALID,18.7269,VALID,168,VALID,0,
2000-01-03, 00:50:00,VALID,0,VALID,100,VALID,0.0169808,VALID,18.8019,VALID,189,VALID,0,
2000-01-03, 00:51:00,VALID,0,VALID,100,VALID,0.0169808,VALID,18.8504,VALID,207,VALID,0,
2000-01-03, 00:52:00,VALID,0,VALID,100,VALID,0,VALID,18.8566,VALID,212,VALID,0,
2000-01-03, 00:53:00,VALID,0,VALID,100,VALID,0,VALID,18.8829,VALID,220,VALID,0,
2000-01-03, 00:54:00,VALID,0,VALID,100,VALID,0.0169808,VALID,18.8993,VALID,217,VALID,0,
2000-01-03, 00:55:01,VALID,0,VALID,100,VALID,0,VALID,18.8954,VALID,212,VALID,0,
2000-01-03, 00:56:00,VALID,0,VALID,100,VALID,-0.0169808,VALID,18.9019,VALID,212,VALID,0,
2000-01-03, 00:57:00,VALID,0,VALID,100,VALID,0,VALID,18.9088,VALID,209,VALID,0,
2000-01-03, 00:58:00,VALID,0,VALID,100,VALID,-0.0169808,VALID,18.9088,VALID,196,VALID,0,
2000-01-03, 00:59:00,VALID,0,VALID,100,VALID,0,VALID,18.8991,VALID,175,VALID,0,
2000-01-03, 01:00:00,VALID,0,VALID,100,VALID,0,VALID,18.8959,VALID,172,VALID,0,
2000-01-03, 01:01:00,VALID,0,VALID,100,VALID,0.0169808,VALID,18.8892,VALID,172,VALID,0,
2000-01-03, 01:02:00,VALID,0,VALID,100,VALID,0,VALID,18.8693,VALID,169,VALID,0,
2000-01-03, 01:03:00,VALID,0,VALID,100,VALID,0,VALID,18.8725,VALID,169,VALID,0,
2000-01-03, 01:04:00,VALID,0,VALID,100,VALID,0.0169808,VALID,18.8765,VALID,147,VALID,0,
2000-01-03, 01:05:00,VALID,0,VALID,100,VALID,0.0169808,VALID,18.8665,VALID,150,VALID,0,
2000-01-03, 01:06:00,VALID,0,VALID,100,VALID,0,VALID,18.8442,VALID,152,VALID,0,
2000-01-03, 01:07:00,VALID,0,VALID,100,VALID,0.0339617,VALID,18.8273,VALID,149,VALID,0,
2000-01-03, 01:08:00,VALID,0,VALID,100,VALID,-0.0339617,VALID,18.8407,VALID,150,VALID,0,
2000-01-03, 01:09:00,VALID,0,VALID,100,VALID,0.0169808,VALID,18.8275,VALID,158,VALID,0,
2000-01-03, 01:10:00,VALID,0,VALID,100,VALID,0,VALID,18.8282,VALID,165,VALID,0,
2000-01-03, 01:11:00,VALID,0,VALID,100,VALID,0,VALID,18.8275,VALID,153,VALID,0,
2000-01-03, 01:12:00,VALID,0,VALID,100,VALID,0,VALID,18.8174,VALID,164,VALID,0,
2000-01-03, 01:13:00,VALID,0,VALID,100,VALID,0,VALID,18.8116,VALID,168,VALID,0,
2000-01-03, 01:14:00,VALID,0,VALID,100,VALID,0.0339617,VALID,18.8176,VALID,169,VALID,0,
2000-01-03, 01:15:00,VALID,0,VALID,100,VALID,0,VALID,18.8606,VALID,185,VALID,0,
2000-01-03, 01:16:00,VALID,0,VALID,100,VALID,0,VALID,18.8959,VALID,182,VALID,0,
2000-01-03, 01:17:00,VALID,0,VALID,100,VALID,0,VALID,18.9185,VALID,177,VALID,0,
2000-01-03, 01:18:01,VALID,0,VALID,100,VALID,0.0169808,VALID,18.8989,VALID,171,VALID,0,
2000-01-03, 01:19:00,VALID,0,VALID,100,VALID,0,VALID,18.8829,VALID,177,VALID,0,
2000-01-03, 01:20:00,VALID,0,VALID,100,VALID,0,VALID,18.8827,VALID,166,VALID,0,
2000-01-03, 01:21:00,VALID,0,VALID,100,VALID,0,VALID,18.8148,VALID,149,VALID,0,
2000-01-03, 01:22:00,VALID,0,VALID,100,VALID,0.0169808,VALID,18.7601,VALID,148,VALID,0,
2000-01-03, 01:23:00,VALID,0,VALID,100,VALID,0,VALID,18.7407,VALID,147,VALID,0,
2000-01-03, 01:24:00,VALID,0,VALID,100,VALID,0.0169808,VALID,18.7532,VALID,147,VALID,0,
2000-01-03, 01:25:00,VALID,0,VALID,100,VALID,0.0339617,VALID,18.7497,VALID,150,VALID,0,
2000-01-03, 01:26:00,VALID,0,VALID,100,VALID,0.0169808,VALID,18.7241,VALID,156,VALID,0,
2000-01-03, 01:27:00,VALID,0,VALID,100,VALID,0,VALID,18.7276,VALID,159,VALID,0,
2000-01-03, 01:28:01,VALID,0,VALID,100,VALID,0,VALID,18.7373,VALID,152,VALID,0,
2000-01-03, 01:29:01,VALID,0,VALID,100,VALID,0.0339617,VALID,18.7664,VALID,158,VALID,0,
2000-01-03, 01:30:00,VALID,0,VALID,100,VALID,0.0169808,VALID,18.7788,VALID,168,VALID,0,
2000-01-03, 01:31:00,VALID,0,VALID,100,VALID,0.0169808,VALID,18.8118,VALID,184,VALID,0,
2000-01-03, 01:32:00,VALID,0,VALID,100,VALID,0,VALID,18.873,VALID,182,VALID,0,
2000-01-03, 01:33:00,VALID,0,VALID,100,VALID,0.0339617,VALID,18.8984,VALID,169,VALID,0,
2000-01-03, 01:34:00,VALID,0,VALID,100,VALID,0,VALID,18.9222,VALID,162,VALID,0,
2000-01-03, 01:35:00,VALID,0,VALID,100,VALID,0.0169808,VALID,18.8566,VALID,147,VALID,0,
2000-01-03, 01:36:00,VALID,0,VALID,100,VALID,0.0339617,VALID,18.831,VALID,143,VALID,0,
2000-01-03, 01:37:00,VALID,0,VALID,100,VALID,0.0169808,VALID,18.8347,VALID,150,VALID,0,
2000-01-03, 01:38:00,VALID,0,VALID,100,VALID,0.0339617,VALID,18.8474,VALID,150,VALID,0,
2000-01-03, 01:39:00,VALID,0,VALID,100,VALID,0,VALID,18.8506,VALID,156,VALID,0,
2000-01-03, 01:40:01,VALID,0,VALID,100,VALID,0,VALID,18.8534,VALID,163,VALID,0,
2000-01-03, 01:41:00,VALID,0,VALID,100,VALID,0.0339617,VALID,18.8698,VALID,172,VALID,0,
2000-01-03, 01:42:00,VALID,0,VALID,100,VALID,0,VALID,18.8832,VALID,174,VALID,0,
2000-01-03, 01:43:00,VALID,0,VALID,100,VALID,-0.0169808,VALID,18.8569,VALID,172,VALID,0,
2000-01-03, 01:44:00,VALID,0,VALID,100,VALID,0.0169808,VALID,18.7989,VALID,165,VALID,0,
2000-01-03, 01:45:00,VALID,0,VALID,100,VALID,0.0169808,VALID,18.7082,VALID,154,VALID,0,
2000-01-03, 01:46:00,VALID,0,VALID,100,VALID,0,VALID,18.6443,VALID,148,VALID,0,
2000-01-03, 01:47:00,VALID,0,VALID,100,VALID,0,VALID,18.6055,VALID,143,VALID,0,
2000-01-03, 01:48:00,VALID,0,VALID,100,VALID,0,VALID,18.5598,VALID,138,VALID,0,
2000-01-03, 01:49:00,VALID,0,VALID,100,VALID,-0.0169808,VALID,18.5275,VALID,137,VALID,0,
2000-01-03, 01:50:01,VALID,0,VALID,100,VALID,0.0169808,VALID,18.518,VALID,136,VALID,0,
2000-01-03, 01:51:00,VALID,0,VALID,100,VALID,0,VALID,18.5277,VALID,126,VALID,0,
2000-01-03, 01:52:00,VALID,0,VALID,100,VALID,0,VALID,18.5441,VALID,121,VALID,0,
2000-01-03, 01:53:00,VALID,0,VALID,100,VALID,0,VALID,18.5794,VALID,121,VALID,0,
2000-01-03, 01:54:00,VALID,0,VALID,100,VALID,0,VALID,18.5956,VALID,122,VALID,0,
2000-01-03, 01:55:00,VALID,0,VALID,100,VALID,0,VALID,18.5695,VALID,122,VALID,0,
2000-01-03, 01:56:00,VALID,0,VALID,100,VALID,0,VALID,18.5697,VALID,122,VALID,0,
2000-01-03, 01:57:00,VALID,0,VALID,100,VALID,0,VALID,18.56,VALID,122,VALID,0,
2000-01-03, 01:58:00,VALID,0,VALID,100,VALID,0,VALID,18.5796,VALID,122,VALID,0,
2000-01-03, 01:59:00,VALID,0,VALID,100,VALID,0,VALID,18.599,VALID,122,VALID,0,
2000-01-03, 02:00:00,VALID,0,VALID,100,VALID,0,VALID,18.5988,VALID,119,VALID,0,
2000-01-03, 02:01:00,VALID,0,VALID,100,VALID,0.0169808,VALID,18.605,VALID,94,VALID,0,
2000-01-03, 02:02:01,VALID,0,VALID,100,VALID,0,VALID,18.6117,VALID,90,VALID,0,
2000-01-03, 02:03:00,VALID,0,VALID,100,VALID,0,VALID,18.615,VALID,90,VALID,0,
2000-01-03, 02:04:00,VALID,0,VALID,100,VALID,0.0339617,VALID,18.6122,VALID,90,VALID,0,
2000-01-03, 02:05:00,VALID,0,VALID,100,VALID,0,VALID,18.605,VALID,90,VALID,0,
2000-01-03, 02:06:00,VALID,0,VALID,100,VALID,0.0169808,VALID,18.6112,VALID,90,VALID,0,
2000-01-03, 02:07:00,VALID,0,VALID,100,VALID,0.0169808,VALID,18.6115,VALID,90,VALID,0,
2000-01-03, 02:08:00,VALID,0,VALID,100,VALID,0,VALID,18.6182,VALID,90,VALID,0,
2000-01-03, 02:09:00,VALID,0,VALID,100,VALID,0.0169808,VALID,18.6115,VALID,90,VALID,0,
2000-01-03, 02:10:00,VALID,0,VALID,100,VALID,0.0169808,VALID,18.6117,VALID,90,VALID,0,
2000-01-03, 02:11:00,VALID,0,VALID,100,VALID,0,VALID,18.6246,VALID,90,VALID,0,
2000-01-03, 02:12:01,VALID,0,VALID,100,VALID,0,VALID,18.6348,VALID,90,VALID,0,
2000-01-03, 02:13:01,VALID,0,VALID,100,VALID,0.0169808,VALID,18.6212,VALID,90,VALID,0,
2000-01-03, 02:14:00,VALID,0,VALID,100,VALID,0.0169808,VALID,18.6179,VALID,90,VALID,0,
2000-01-03, 02:15:00,VALID,0,VALID,100,VALID,0,VALID,18.5956,VALID,126,VALID,0,
2000-01-03, 02:16:00,VALID,0,VALID,100,VALID,0.0339617,VALID,18.5531,VALID,210,VALID,0,
2000-01-03, 02:17:00,VALID,0,VALID,100,VALID,0.0169808,VALID,18.5148,VALID,210,VALID,0,
2000-01-03, 02:18:00,VALID,0,VALID,100,VALID,0.0169808,VALID,18.4825,VALID,210,VALID,0,
2000-01-03, 02:19:00,VALID,0,VALID,100,VALID,0,VALID,18.4663,VALID,211,VALID,0,
2000-01-03, 02:20:00,VALID,0,VALID,100,VALID,0.0169808,VALID,18.4598,VALID,212,VALID,0,
2000-01-03, 02:21:00,VALID,0,VALID,100,VALID,0,VALID,18.4368,VALID,212,VALID,0,
2000-01-03, 02:22:00,VALID,0,VALID,100,VALID,0,VALID,18.4345,VALID,212,VALID,0,
2000-01-03, 02:23:00,VALID,0,VALID,100,VALID,0,VALID,18.434,VALID,212,VALID,0,
2000-01-03, 02:24:01,VALID,0,VALID,100,VALID,0,VALID,18.4541,VALID,212,VALID,0,
2000-01-03, 02:25:00,VALID,0,VALID,100,VALID,0,VALID,18.4825,VALID,212,VALID,0,
2000-01-03, 02:26:00,VALID,0,VALID,100,VALID,-0.0169808,VALID,18.5379,VALID,212,VALID,0,
2000-01-03, 02:27:00,VALID,0,VALID,100,VALID,0,VALID,18.5637,VALID,212,VALID,0,
2000-01-03, 02:28:00,VALID,0,VALID,100,VALID,0,VALID,18.5863,VALID,212,VALID,0,
2000-01-03, 02:29:00,VALID,0,VALID,100,VALID,0.0169808,VALID,18.5993,VALID,212,VALID,0,
2000-01-03, 02:30:00,VALID,0,VALID,100,VALID,0,VALID,18.5896,VALID,212,VALID,0,
2000-01-03, 02:31:00,VALID,0,VALID,100,VALID,0,VALID,18.5863,VALID,212,VALID,0,
2000-01-03, 02:32:00,VALID,0,VALID,100,VALID,0,VALID,18.5863,VALID,212,VALID,0,
2000-01-03, 02:33:01,VALID,0,VALID,100,VALID,0,VALID,18.5893,VALID,212,VALID,0,
2000-01-03, 02:34:01,VALID,0,VALID,100,VALID,0.0169808,VALID,18.5926,VALID,212,VALID,0,
2000-01-03, 02:35:01,VALID,0,VALID,100,VALID,0,VALID,18.6053,VALID,212,VALID,0,
2000-01-03, 02:36:00,VALID,0,VALID,100,VALID,0.0169808,VALID,18.6184,VALID,212,VALID,0,
2000-01-03, 02:37:00,VALID,0,VALID,100,VALID,0.0169808,VALID,18.605,VALID,212,VALID,0,
2000-01-03, 02:38:00,VALID,0,VALID,100,VALID,0,VALID,18.6025,VALID,212,VALID,0,
2000-01-03, 02:39:00,VALID,0,VALID,100,VALID,-0.0169808,VALID,18.5697,VALID,212,VALID,0,
2000-01-03, 02:40:00,VALID,0,VALID,100,VALID,0.0169808,VALID,18.5605,VALID,212,VALID,0,
2000-01-03, 02:41:00,VALID,0,VALID,100,VALID,0,VALID,18.5501,VALID,212,VALID,0,
2000-01-03, 02:42:00,VALID,0,VALID,100,VALID,0.0169808,VALID,18.5637,VALID,212,VALID,0,
2000-01-03, 02:43:00,VALID,0,VALID,100,VALID,0.0339617,VALID,18.5762,VALID,212,VALID,0,
2000-01-03, 02:44:01,VALID,0,VALID,100,VALID,0,VALID,18.5896,VALID,212,VALID,0,
2000-01-03, 02:45:00,VALID,0,VALID,100,VALID,0,VALID,18.5829,VALID,212,VALID,0,
2000-01-03, 02:46:01,VALID,0,VALID,100,VALID,0,VALID,18.5799,VALID,212,VALID,0,
2000-01-03, 02:47:00,VALID,0,VALID,100,VALID,0.0169808,VALID,18.5637,VALID,212,VALID,0,
2000-01-03, 02:48:00,VALID,0,VALID,100,VALID,-0.0169808,VALID,18.5409,VALID,212,VALID,0,
2000-01-03, 02:49:00,VALID,0,VALID,100,VALID,0.0339617,VALID,18.5051,VALID,212,VALID,0,
2000-01-03, 02:50:00,VALID,0,VALID,100,VALID,0.0169808,VALID,18.4922,VALID,212,VALID,0,
2000-01-03, 02:51:00,VALID,0,VALID,100,VALID,0,VALID,18.4864,VALID,212,VALID,0,
2000-01-03, 02:52:00,VALID,0,VALID,100,VALID,0.0169808,VALID,18.4596,VALID,212,VALID,0,
2000-01-03, 02:53:00,VALID,0,VALID,100,VALID,0,VALID,18.4829,VALID,212,VALID,0,
2000-01-03, 02:54:00,VALID,0,VALID,100,VALID,0,VALID,18.4825,VALID,194,VALID,0,
2000-01-03, 02:55:00,VALID,0,VALID,100,VALID,0.0169808,VALID,18.4536,VALID,167,VALID,0,
2000-01-03, 02:56:00,VALID,0,VALID,100,VALID,0,VALID,18.464,VALID,167,VALID,0,
2000-01-03, 02:57:01,VALID,0,VALID,100,VALID,0.0339617,VALID,18.4832,VALID,161,VALID,0,
2000-01-03, 02:58:00,VALID,0,VALID,100,VALID,0,VALID,18.4504,VALID,154,VALID,0,
2000-01-03, 02:59:00,VALID,0,VALID,100,VALID,0.0339617,VALID,18.3989,VALID,153,VALID,0,
2000-01-03, 03:00:00,VALID,0,VALID,100,VALID,0,VALID,18.3696,VALID,153,VALID,0,
2000-01-03, 03:01:00,VALID,0,VALID,100,VALID,0.0169808,VALID,18.3601,VALID,152,VALID,0,
2000-01-03, 03:02:00,VALID,0,VALID,100,VALID,-0.0169808,VALID,18.3601,VALID,152,VALID,0,
2000-01-03, 03:03:00,VALID,0,VALID,100,VALID,0,VALID,18.38,VALID,152,VALID,0,
2000-01-03, 03:04:00,VALID,0,VALID,100,VALID,0,VALID,18.3827,VALID,152,VALID,0,
2000-01-03, 03:05:00,VALID,0,VALID,100,VALID,-0.0339617,VALID,18.3867,VALID,152,VALID,0,
2000-01-03, 03:06:00,VALID,0,VALID,100,VALID,0,VALID,18.3763,VALID,152,VALID,0,
2000-01-03, 03:07:00,VALID,0,VALID,100,VALID,0,VALID,18.3701,VALID,152,VALID,0,
2000-01-03, 03:08:00,VALID,0,VALID,100,VALID,-0.0169808,VALID,18.3668,VALID,152,VALID,0,
2000-01-03, 03:09:00,VALID,0,VALID,100,VALID,0,VALID,18.3703,VALID,152,VALID,0,
2000-01-03, 03:10:00,VALID,0,VALID,100,VALID,0,VALID,18.3733,VALID,152,VALID,0,
2000-01-03, 03:11:00,VALID,0,VALID,100,VALID,0,VALID,18.3795,VALID,152,VALID,0,
2000-01-03, 03:12:00,VALID,0,VALID,100,VALID,0,VALID,18.3991,VALID,152,VALID,0,
2000-01-03, 03:13:00,VALID,0,VALID,100,VALID,0,VALID,18.4084,VALID,152,VALID,0,
2000-01-03, 03:14:00,VALID,0,VALID,100,VALID,-0.0169808,VALID,18.4349,VALID,152,VALID,0,
2000-01-03, 03:15:00,VALID,0,VALID,100,VALID,0,VALID,18.467,VALID,152,VALID,0,
2000-01-03, 03:16:00,VALID,0,VALID,100,VALID,0,VALID,18.4894,VALID,152,VALID,0,
2000-01-03, 03:17:00,VALID,0,VALID,100,VALID,0,VALID,18.5085,VALID,151,VALID,0,
2000-01-03, 03:18:01,VALID,0,VALID,100,VALID,-0.0169808,VALID,18.5053,VALID,151,VALID,0,
2000-01-03, 03:19:00,VALID,0,VALID,100,VALID,0,VALID,18.5182,VALID,151,VALID,0,
2000-01-03, 03:20:00,VALID,0,VALID,100,VALID,0,VALID,18.5277,VALID,151,VALID,0,
2000-01-03, 03:21:00,VALID,0,VALID,100,VALID,0.0169808,VALID,18.5536,VALID,145,VALID,0,
2000-01-03, 03:22:00,VALID,0,VALID,100,VALID,0.0169808,VALID,18.5829,VALID,143,VALID,0,
2000-01-03, 03:23:00,VALID,0,VALID,100,VALID,0,VALID,18.5889,VALID,143,VALID,0,
2000-01-03, 03:24:00,VALID,0,VALID,100,VALID,0.0169808,VALID,18.6117,VALID,143,VALID,0,
2000-01-03, 03:25:00,VALID,0,VALID,100,VALID,0,VALID,18.6376,VALID,143,VALID,0,
2000-01-03, 03:26:00,VALID,0,VALID,100,VALID,0,VALID,18.647,VALID,143,VALID,0,
2000-01-03, 03:27:00,VALID,0,VALID,100,VALID,0.0169808,VALID,18.6567,VALID,143,VALID,0,
2000-01-03, 03:28:01,VALID,0,VALID,100,VALID,0.0169808,VALID,18.6796,VALID,144,VALID,0,
2000-01-03, 03:29:01,VALID,0,VALID,100,VALID,0.0169808,VALID,18.6893,VALID,149,VALID,0,
2000-01-03, 03:30:00,VALID,0,VALID,100,VALID,0.0169808,VALID,18.7024,VALID,182,VALID,0,
2000-01-03, 03:31:00,VALID,0,VALID,100,VALID,0.0169808,VALID,18.696,VALID,189,VALID,0,
2000-01-03, 03:32:00,VALID,0,VALID,100,VALID,0.0169808,VALID,18.696,VALID,220,VALID,0,
2000-01-03, 03:33:00,VALID,0,VALID,100,VALID,0.0169808,VALID,18.7024,VALID,233,VALID,0,
2000-01-03, 03:34:00,VALID,0,VALID,100,VALID,-0.0679233,VALID,18.6997,VALID,237,VALID,0,
2000-01-03, 03:35:00,VALID,0,VALID,100,VALID,-0.0849042,VALID,18.6999,VALID,237,VALID,0,
2000-01-03, 03:36:00,VALID,0,VALID,100,VALID,-0.0849042,VALID,18.7064,VALID,237,VALID,0,
2000-01-03, 03:37:00,VALID,0,VALID,100,VALID,-0.0849042,VALID,18.7066,VALID,237,VALID,0,
2000-01-03, 03:38:00,VALID,0,VALID,100,VALID,-0.0679233,VALID,18.7133,VALID,239,VALID,0,
2000-01-03, 03:39:00,VALID,0,VALID,100,VALID,-0.0679233,VALID,18.6939,VALID,241,VALID,0,
2000-01-03, 03:40:01,VALID,0,VALID,100,VALID,-0.0849042,VALID,18.6868,VALID,242,VALID,0,
2000-01-03, 03:41:00,VALID,0,VALID,100,VALID,-0.0679233,VALID,18.6964,VALID,242,VALID,0,
2000-01-03, 03:42:00,VALID,0,VALID,100,VALID,-0.0849042,VALID,18.7096,VALID,242,VALID,0,
2000-01-03, 03:43:00,VALID,0,VALID,100,VALID,-0.0339617,VALID,18.7061,VALID,242,VALID,0,
2000-01-03, 03:44:00,VALID,0,VALID,100,VALID,-0.0679233,VALID,18.7094,VALID,242,VALID,0,
2000-01-03, 03:45:00,VALID,0,VALID,100,VALID,-0.101885,VALID,18.7161,VALID,242,VALID,0,
2000-01-03, 03:46:00,VALID,0,VALID,100,VALID,-0.101885,VALID,18.7128,VALID,242,VALID,0,
2000-01-03, 03:47:00,VALID,0,VALID,100,VALID,-0.101885,VALID,18.7163,VALID,260,VALID,0,
2000-01-03, 03:48:00,VALID,0,VALID,100,VALID,-0.0679233,VALID,18.7098,VALID,283,VALID,0,
2000-01-03, 03:49:00,VALID,0,VALID,100,VALID,-0.0679233,VALID,18.6902,VALID,283,VALID,0,
2000-01-03, 03:50:01,VALID,0,VALID,100,VALID,-0.0169808,VALID,18.69,VALID,283,VALID,0,
2000-01-03, 03:51:00,VALID,0,VALID,100,VALID,-0.0509425,VALID,18.6935,VALID,283,VALID,0,
2000-01-03, 03:52:00,VALID,0,VALID,100,VALID,-0.0679233,VALID,18.687,VALID,283,VALID,0,
2000-01-03, 03:53:00,VALID,0,VALID,100,VALID,-0.0679233,VALID,18.6833,VALID,283,VALID,0,
2000-01-03, 03:54:00,VALID,0,VALID,100,VALID,-0.0679233,VALID,18.6964,VALID,283,VALID,0,
2000-01-03, 03:55:00,VALID,0,VALID,100,VALID,-0.0679233,VALID,18.7034,VALID,283,VALID,0,
2000-01-03, 03:56:00,VALID,0,VALID,100,VALID,-0.0509425,VALID,18.7131,VALID,283,VALID,0,
2000-01-03, 03:57:00,VALID,0,VALID,100,VALID,-0.101885,VALID,18.7098,VALID,283,VALID,0,
2000-01-03, 03:58:00,VALID,0,VALID,100,VALID,-0.101885,VALID,18.7098,VALID,283,VALID,0,
2000-01-03, 03:59:00,VALID,0,VALID,100,VALID,-0.0509425,VALID,18.7128,VALID,283,VALID,0,
2000-01-03, 04:00:00,VALID,0,VALID,100,VALID,-0.0849042,VALID,18.7198,VALID,283,VALID,0,
2000-01-03, 04:01:00,VALID,0,VALID,100,VALID,-0.0849042,VALID,18.7228,VALID,283,VALID,0,
2000-01-03, 04:02:00,VALID,0,VALID,100,VALID,-0.0849042,VALID,18.7193,VALID,283,VALID,0,
2000-01-03, 04:03:00,VALID,0,VALID,100,VALID,-0.0849042,VALID,18.7161,VALID,276,VALID,0,
2000-01-03, 04:04:00,VALID,0,VALID,100,VALID,-0.0679233,VALID,18.684,VALID,192,VALID,0,
2000-01-03, 04:05:00,VALID,0,VALID,100,VALID,-0.0679233,VALID,18.6547,VALID,174,VALID,0,
2000-01-03, 04:06:00,VALID,0,VALID,100,VALID,-0.0849042,VALID,18.6124,VALID,174,VALID,0,
2000-01-03, 04:07:00,VALID,0,VALID,100,VALID,-0.0169808,VALID,18.5602,VALID,174,VALID,0,
2000-01-03, 04:08:00,VALID,0,VALID,100,VALID,-0.0679233,VALID,18.5448,VALID,174,VALID,0,
2000-01-03, 04:09:00,VALID,0,VALID,100,VALID,-0.0679233,VALID,18.5349,VALID,174,VALID,0,
2000-01-03, 04:10:00,VALID,0,VALID,100,VALID,-0.0679233,VALID,18.5284,VALID,174,VALID,0,
2000-01-03, 04:11:00,VALID,0,VALID,100,VALID,-0.0509425,VALID,18.5224,VALID,174,VALID,0,
2000-01-03, 04:12:01,VALID,0,VALID,100,VALID,-0.0509425,VALID,18.5095,VALID,174,VALID,0,
2000-01-03, 04:13:01,VALID,0,VALID,100,VALID,-0.0849042,VALID,18.4995,VALID,174,VALID,0,
2000-01-03, 04:14:00,VALID,0,VALID,100,VALID,-0.0679233,VALID,18.4899,VALID,174,VALID,0,
2000-01-03, 04:15:00,VALID,0,VALID,100,VALID,-0.101885,VALID,18.4767,VALID,174,VALID,0,
2000-01-03, 04:16:00,VALID,0,VALID,100,VALID,-0.101885,VALID,18.4675,VALID,172,VALID,0,
2000-01-03, 04:17:00,VALID,0,VALID,100,VALID,-0.0509425,VALID,18.4735,VALID,172,VALID,0,
2000-01-03, 04:18:00,VALID,0,VALID,100,VALID,-0.0509425,VALID,18.4832,VALID,172,VALID,0,
2000-01-03, 04:19:00,VALID,0,VALID,100,VALID,-0.0679233,VALID,18.4739,VALID,172,VALID,0,
2000-01-03, 04:20:00,VALID,0,VALID,100,VALID,-0.101885,VALID,18.4841,VALID,172,VALID,0,
2000-01-03, 04:21:00,VALID,0,VALID,100,VALID,-0.101885,VALID,18.4709,VALID,172,VALID,0,
2000-01-03, 04:22:00,VALID,0,VALID,100,VALID,-0.101885,VALID,18.4739,VALID,172,VALID,0,
2000-01-03, 04:23:00,VALID,0,VALID,100,VALID,-0.0849042,VALID,18.4742,VALID,172,VALID,0,
2000-01-03, 04:24:00,VALID,0,VALID,100,VALID,-0.0679233,VALID,18.4705,VALID,172,VALID,0,
2000-01-03, 04:25:00,VALID,0,VALID,100,VALID,-0.0849042,VALID,18.4906,VALID,172,VALID,0,
2000-01-03, 04:26:00,VALID,0,VALID,100,VALID,-0.0849042,VALID,18.4806,VALID,172,VALID,0,
2000-01-03, 04:27:00,VALID,0,VALID,100,VALID,-0.101885,VALID,18.4873,VALID,179,VALID,0,
2000-01-03, 04:28:00,VALID,0,VALID,100,VALID,-0.0679233,VALID,18.4804,VALID,188,VALID,0,
2000-01-03, 04:29:00,VALID,0,VALID,100,VALID,-0.0849042,VALID,18.4769,VALID,200,VALID,0,
2000-01-03, 04:30:00,VALID,0,VALID,100,VALID,-0.101885,VALID,18.4871,VALID,205,VALID,0,
2000-01-03, 04:31:00,VALID,0,VALID,100,VALID,-0.101885,VALID,18.5035,VALID,205,VALID,0,
2000-01-03, 04:32:00,VALID,0,VALID,100,VALID,-0.0339617,VALID,18.4965,VALID,211,VALID,0,
2000-01-03, 04:33:00,VALID,0,VALID,100,VALID,-0.101885,VALID,18.506,VALID,218,VALID,0,
2000-01-03, 04:34:01,VALID,0,VALID,100,VALID,0,VALID,18.5307,VALID,219,VALID,0,
2000-01-03, 04:35:01,VALID,0,VALID,100,VALID,0,VALID,18.5568,VALID,230,VALID,0,
2000-01-03, 04:36:00,VALID,0,VALID,100,VALID,0,VALID,18.5829,VALID,231,VALID,0,